DW1188 Weather Reports


Display with metric or nautical units.
time (UTC)temp
F
wind
direction
speed
MPH
gust
MPH
rain 1hr
in
rain 24hr
in
rain mn
in
humidity
%
barometer
mb
20240621000034 79 346 0.0 0.0 0.00 0.00 0.00 17 1016.2
20240620233535 78 239 0.0 7.0 0.00 0.00 0.00 18 1016.3
20240620232404 78 192 0.0 0.0 0.00 0.00 0.00 16 1016.4
20240620231145 79 251 0.0 0.0 0.00 0.00 0.00 17 1016.6
20240620225927 78 234 0.0 0.0 0.00 0.00 0.00 17 1016.7
20240620224712 78 160 0.0 5.0 0.00 0.00 0.00 20 1016.7
20240620223438 78 32 0.0 0.0 0.00 0.00 0.00 21 1016.7
20240620222240 77 341 0.0 0.0 0.00 0.00 0.00 21 1016.8
20240620221036 77 49 0.0 0.0 0.00 0.00 0.00 24 1017.0
20240620214415 76 329 0.0 0.0 0.00 0.00 0.00 26 1017.1
20240620213204 75 331 0.0 0.0 0.00 0.00 0.00 27 1017.4
20240620211947 76 315 0.0 7.0 0.00 0.00 0.00 30 1017.4
20240620210729 76 325 0.0 3.0 0.00 0.00 0.00 27 1017.5
20240620205503 75 343 0.0 0.0 0.00 0.00 0.00 32 1017.6
20240620204315 75 45 0.0 2.0 0.00 0.00 0.00 30 1017.7
20240620203053 75 302 0.0 11.0 0.00 0.00 0.00 31 1017.8
20240620201924 74 5 0.0 6.0 0.00 0.00 0.00 35 1017.8
20240620200730 74 30 0.0 2.0 0.00 0.00 0.00 36 1017.9
20240620195545 74 47 0.0 2.0 0.00 0.00 0.00 37 1018.0
20240620194349 73 51 1.0 13.0 0.00 0.00 0.00 39 1018.2
20240620193208 72 355 1.0 11.0 0.00 0.00 0.00 43 1018.3
20240620192021 72 17 1.0 9.0 0.00 0.00 0.00 44 1018.5
20240620190825 71 42 2.0 11.0 0.00 0.00 0.00 45 1018.6
20240620185609 70 344 0.0 1.0 0.00 0.00 0.00 46 1018.7
20240620184334 70 286 0.0 7.0 0.00 0.00 0.00 46 1018.8
20240620183151 69 351 2.0 12.0 0.00 0.00 0.00 47 1019.0
20240620181915 69 30 0.0 4.0 0.00 0.00 0.00 48 1019.0
20240620180727 68 59 0.0 13.0 0.00 0.00 0.00 49 1019.1
20240620175537 67 16 2.0 15.0 0.00 0.00 0.00 50 1019.2
20240620172915 66 346 2.0 13.0 0.00 0.00 0.00 52 1019.5
20240620170322 64 40 3.0 13.0 0.00 0.00 0.00 54 1019.7
20240620165057 64 0 2.0 12.0 0.00 0.00 0.00 56 1019.7
20240620162502 62 25 3.0 12.0 0.00 0.00 0.00 58 1019.9
20240620161231 61 355 2.0 12.0 0.00 0.00 0.00 58 1020.0
20240620154657 60 22 4.0 15.0 0.00 0.00 0.00 61 1020.0
20240620153458 59 59 2.0 10.0 0.00 0.00 0.00 61 1020.2
20240620150916 57 13 1.0 10.0 0.00 0.00 0.00 65 1020.2
20240620145711 57 12 3.0 14.0 0.00 0.00 0.00 66 1020.2
20240620144446 56 49 1.0 11.0 0.00 0.00 0.00 66 1020.2
20240620141951 55 26 2.0 11.0 0.00 0.00 0.00 70 1020.2
20240620140745 54 42 2.0 11.0 0.00 0.00 0.00 71 1020.2
20240620135516 54 47 0.0 0.0 0.00 0.00 0.00 72 1020.3
20240620132926 52 42 0.0 0.0 0.00 0.00 0.00 74 1020.3
20240620131646 52 40 0.0 0.0 0.00 0.00 0.00 75 1020.4
20240620130425 51 82 0.0 0.0 0.00 0.00 0.00 76 1020.3
20240620125224 50 76 0.0 0.0 0.00 0.00 0.00 77 1020.3
20240620121328 49 58 0.0 0.0 0.00 0.00 0.00 78 1020.1
20240620120126 49 74 0.0 2.0 0.00 0.00 0.00 77 1020.0
20240620114847 50 38 0.0 3.0 0.00 0.00 0.00 77 1019.9
20240620113633 50 65 0.0 2.0 0.00 0.00 0.00 76 1019.7
20240620112445 50 48 0.0 0.0 0.00 0.00 0.00 75 1019.7
20240620111315 50 73 0.0 0.0 0.00 0.00 0.00 76 1019.7
20240620110041 50 58 0.0 0.0 0.00 0.00 0.00 75 1019.5
20240620104900 50 55 0.0 0.0 0.00 0.00 0.00 75 1019.6
20240620103642 51 47 0.0 6.0 0.00 0.00 0.00 74 1019.6
20240620102415 51 53 0.0 1.0 0.00 0.00 0.00 73 1019.5
20240620101229 51 81 0.0 3.0 0.00 0.00 0.00 72 1019.5
20240620100037 52 51 0.0 0.0 0.00 0.00 0.00 71 1019.4
20240620094841 52 44 0.0 10.0 0.00 0.00 0.00 71 1019.4
20240620093629 52 34 0.0 0.0 0.00 0.00 0.00 71 1019.4
20240620091040 53 22 0.0 1.0 0.00 0.00 0.00 69 1019.6
20240620085824 53 27 0.0 3.0 0.00 0.00 0.00 68 1019.5
20240620084554 53 46 0.0 0.0 0.00 0.00 0.00 68 1019.5
20240620083420 53 56 0.0 0.0 0.00 0.00 0.00 68 1019.6
20240620082249 53 92 0.0 0.0 0.00 0.00 0.00 68 1019.6
20240620081036 53 65 0.0 0.0 0.00 0.00 0.00 68 1019.6
20240620074422 54 82 0.0 0.0 0.00 0.00 0.00 67 1019.6
20240620073241 54 53 0.0 0.0 0.00 0.00 0.00 65 1019.6
20240620072005 54 65 0.0 0.0 0.00 0.00 0.00 64 1019.7
20240620070824 54 67 0.0 0.0 0.00 0.00 0.00 64 1019.8
20240620065615 55 74 0.0 0.0 0.00 0.00 0.00 63 1019.8
20240620064446 56 31 0.0 6.0 0.00 0.00 0.00 62 1019.8
20240620063309 56 46 0.0 0.0 0.00 0.00 0.00 61 1019.9
20240620062042 57 46 0.0 0.0 0.00 0.00 0.00 59 1019.8
20240620060853 58 37 0.0 3.0 0.00 0.00 0.00 56 1019.8
20240620055642 58 41 0.0 0.0 0.00 0.00 0.00 54 1019.8
20240620054445 58 35 0.0 6.0 0.00 0.00 0.00 53 1019.7
20240620053212 58 51 0.0 0.0 0.00 0.00 0.00 55 1019.8
20240620052007 59 64 0.0 0.0 0.00 0.00 0.00 53 1019.7
20240620050821 59 26 0.0 0.0 0.00 0.00 0.00 53 1019.6
20240620045549 59 348 0.0 0.0 0.00 0.00 0.00 53 1019.5
20240620044406 61 0 0.0 0.0 0.00 0.00 0.00 51 1019.5
20240620043145 62 34 0.0 0.0 0.00 0.00 0.00 47 1019.5
20240620040615 64 34 0.0 0.0 0.00 0.00 0.00 42 1019.3
20240620034022 66 37 0.0 3.0 0.00 0.00 0.00 39 1019.1
20240620032839 67 33 0.0 0.0 0.00 0.00 0.00 38 1019.1
20240620031602 68 34 0.0 0.0 0.00 0.00 0.00 38 1019.1
20240620030408 68 13 0.0 3.0 0.00 0.00 0.00 38 1019.2
20240620023854 69 43 0.0 6.0 0.00 0.00 0.00 34 1019.2
20240620022637 70 11 0.0 0.0 0.00 0.00 0.00 32 1019.2
20240620021456 70 32 0.0 6.0 0.00 0.00 0.00 32 1019.3
20240620020251 70 5 0.0 4.0 0.00 0.00 0.00 33 1019.3
20240620015050 70 28 0.0 0.0 0.00 0.00 0.00 31 1019.3
20240620013822 70 5 0.0 0.0 0.00 0.00 0.00 31 1019.4
20240620012624 71 36 0.0 0.0 0.00 0.00 0.00 30 1019.5
20240620011433 71 351 0.0 0.0 0.00 0.02 0.00 31 1019.5
20240620010229 71 0 0.0 0.0 0.00 0.08 0.00 32 1019.6
20240620003628 70 35 0.0 0.0 0.00 0.24 0.00 32 1019.8
20240620002430 70 55 0.0 0.0 0.00 0.28 0.00 31 1019.9
20240620001239 70 350 0.0 6.0 0.00 0.31 0.00 33 1020.0